Location: Red Bud (historical)
(37.7759°N, 88.4053°W)
Time: 00:10:29
(UTC+00:00)

NOAA 12 - Pass Details

Date: 29 October 2020
Orbit: 796 x 815 km, 98.5° (Epoch: 28 November)

Event Time Altitude Azimuth Distance (km) Brightness Sun altitude
Rises 23:21:41 0° 164° (SSE) 3,305 7.3 -5.4°
Reaches altitude 10° 23:24:00 10° 163° (SSE) 2,381 6.5 -5.9°
Maximum altitude 23:29:16 85° 76° (ENE) 818 4.1 -6.9°
Drops below altitude 10° 23:34:37 10° 348° (NNW) 2,407 6.6 -7.9°
Sets 23:36:58 0° 348° (NNW) 3,345 7.3 -8.4°
